Milton, FL

10:04 PM CST on December 08, 2016 (GMT -0600)
Whiting Field Naval Air Station (North)

Weather History for KNSE - May, 2013

Change the Weather History Date:

Monday, May 13, 2013

  Actual Average Record
Temperature  
Mean Temperature 64 °F -  
Max Temperature 78 °F 82 °F 91 °F (1998)
Min Temperature 52 °F 61 °F 52 °F (2008)
Growing Degree Days 14 (Base 50)    
Moisture  
Dew Point 41 °F    
Average Humidity 47    
Maximum Humidity 80    
Minimum Humidity 23    
Precipitation  
Precipitation 0.00 in - - ()
Sea Level Pressure  
Sea Level Pressure 30.17 in    
Wind  
Wind Speed 4 mph (North)    
Max Wind Speed 13 mph    
Max Gust Speed 16 mph    
Visibility 9 miles    
Events      
Averages and records for this station are not official NWS values.
T = Trace of Precipitation, MM = Missing Value Source: NWS Daily Summary

Daily Weather History Graph

Daily Weather History Graph

Search for Another Location

Airport or City:

Trip Planner

Search our weather history database for the weather conditions in past years. The results will help you decide how hot, cold, wet, or windy it might be!

Date:

Astronomy

May. 13, 2013 Rise Set
Actual Time 5:54 AM CDT 7:34 PM CDT
Civil Twilight 5:28 AM CDT 8:01 PM CDT
Nautical Twilight 4:56 AM CDT 8:32 PM CDT
Astronomical Twilight 4:23 AM CDT 9:06 PM CDT
Moon 8:41 AM CDT (5/13) 10:43 PM CDT (5/13)
Length of Visible Light 14h 33m
Length of Day
13h 40m
Waxing Crescent, 12% of the Moon is Illuminated
May 13
Waxing Crescent
May 17
First Quarter
May 24
Full
May 31
Last Quarter
Jun 8
New

Hourly Weather History & Observations

Time (CDT) Temp. Dew Point Humidity Pressure Visibility Wind Dir Wind Speed Gust Speed Precip Events Conditions
12:56 AM 61.0 °F 45.0 °F 56% 30.09 in 10.0 mi North 5.8 mph - N/A   Clear
1:56 AM 57.9 °F 43.0 °F 58% 30.09 in 10.0 mi North 4.6 mph - N/A   Clear
2:56 AM 55.9 °F 42.1 °F 60% 30.11 in 10.0 mi Calm Calm - N/A   Clear
3:56 AM 54.0 °F 41.0 °F 62% 30.12 in 10.0 mi Calm Calm - N/A   Clear
4:56 AM 52.0 °F 41.0 °F 66% 30.13 in 10.0 mi North 4.6 mph - N/A   Clear
5:56 AM 52.0 °F 39.9 °F 63% 30.15 in 10.0 mi North 3.5 mph - N/A   Partly Cloudy
6:56 AM 54.0 °F 41.0 °F 62% 30.19 in 10.0 mi Calm Calm - N/A   Scattered Clouds
7:56 AM 57.9 °F 42.1 °F 56% 30.22 in 10.0 mi Variable 3.5 mph - N/A   Mostly Cloudy
8:56 AM 64.9 °F 42.1 °F 43% 30.22 in 10.0 mi North 4.6 mph - N/A   Mostly Cloudy
9:56 AM 69.1 °F 37.9 °F 32% 30.22 in 10.0 mi North 9.2 mph - N/A   Scattered Clouds
10:56 AM 71.1 °F 37.0 °F 29% 30.23 in 10.0 mi North 8.1 mph - N/A   Scattered Clouds
11:56 AM 73.0 °F 34.0 °F 24% 30.22 in 10.0 mi NNW 10.4 mph 16.1 mph N/A   Scattered Clouds
12:56 PM 73.0 °F 37.0 °F 27% 30.21 in 7.0 mi Variable 5.8 mph - N/A   Scattered Clouds
1:56 PM 73.4 °F 35.6 °F 25% 30.18 in 4.0 mi Variable 5.8 mph - N/A   Smoke
2:19 PM 75.2 °F 37.4 °F 25% 30.22 in 5.0 mi Variable 4.6 mph - N/A   Smoke
3:56 PM 77.0 °F 36.0 °F 23% 30.16 in 10.0 mi North 5.8 mph 16.1 mph N/A   Scattered Clouds
4:56 PM 77.0 °F 37.9 °F 24% 30.15 in 10.0 mi North 12.7 mph - N/A   Scattered Clouds
5:56 PM 77.0 °F 37.9 °F 24% 30.14 in 10.0 mi NNW 11.5 mph - N/A   Partly Cloudy
6:56 PM 73.9 °F 41.0 °F 30% 30.14 in 10.0 mi North 8.1 mph - N/A   Partly Cloudy
7:56 PM 64.9 °F 45.0 °F 48% 30.15 in 10.0 mi Calm Calm - N/A   Clear
8:56 PM 60.1 °F 46.0 °F 60% 30.16 in 10.0 mi Calm Calm - N/A   Clear
9:56 PM 57.9 °F 46.0 °F 65% 30.17 in 10.0 mi Calm Calm - N/A   Clear
10:56 PM 55.9 °F 50.0 °F 80% 30.17 in 10.0 mi Calm Calm - N/A   Clear
11:56 PM 57.0 °F 50.0 °F 77% 30.17 in 10.0 mi Calm Calm - N/A   Clear